Simultaneous Nadir Overpasses (SNOs) Predictions

Prediction of SNOs between AQUA and METOP-A Satellite Orbit:

Table of predicted SNOs for the next 14.0 days since TLE Epoch: 9/28/2013
Index Date (AQUA) Time (AQUA) Lat,Lon (AQUA) SZA (AQUA ) Date (METOP-A) Time (METOP-A) Lat,Lon (METOP-A) SZA (METOP-A ) Distance(km) Time Diff (sec)
1 09/28/2013 05:31:23 73.15, 92.76 75.16 09/28/2013 05:30:18 73.10, 89.88 75.17 93.04 65
2 09/28/2013 06:21:02 -73.86,-101.08 104.11 09/28/2013 06:20:44 -73.87,-101.04 104.09 2.01 18
3 09/28/2013 07:10:31 73.93, 66.38 75.99 09/28/2013 07:11:23 73.93, 66.45 75.99 2.13 52
4 10/01/2013 01:05:44 73.52, 158.44 76.62 10/01/2013 01:04:34 73.42, 157.00 76.56 46.69 70
5 10/01/2013 01:55:16 -73.85, -34.63 103.02 10/01/2013 01:55:07 -73.85, -34.69 103.03 1.76 9
6 10/01/2013 02:44:45 73.93, 132.82 77.08 10/01/2013 02:45:46 73.90, 132.78 77.05 3.30 61
7 10/03/2013 20:40:03 73.75,-135.62 77.95 10/03/2013 20:38:51 73.74,-135.86 77.95 7.53 72
8 10/03/2013 21:29:31 -73.87, 31.76 101.92 10/03/2013 21:29:30 -73.87, 31.77 101.92 0.65 1
9 10/03/2013 22:18:59 73.90,-160.68 78.14 10/03/2013 22:20:09 73.92,-160.77 78.15 3.28 70
10 10/06/2013 16:14:18 73.80, -69.30 79.09 10/06/2013 16:13:13 73.80, -69.31 79.09 0.49 65
11 10/06/2013 17:03:45 -73.87, 98.20 100.84 10/06/2013 17:03:53 -73.88, 98.21 100.82 1.51 8
12 10/06/2013 17:53:17 74.11, -94.71 79.43 10/06/2013 17:54:28 74.13, -93.85 79.43 26.21 71
13 10/09/2013 11:48:31 73.83, -2.92 80.19 10/09/2013 11:47:35 73.81, -2.89 80.17 2.90 56
14 10/09/2013 12:37:58 -73.90, 164.59 99.74 10/09/2013 12:38:15 -73.90, 164.65 99.74 1.86 17




NCC Satellite Simultaneous Nadir Overpasses (SNOs) Prediction Service
